• en France
  • Liste des pays
  • À 7 jours
  • Température de l'eau
  • Carte satellitaire
  • Carte météo
  • Widgets météo
  • user-avatar
    Se connecter

    Météo par heure à Sopron

    Ce jour, 21 Juillet, Samedi

    Heure Température Précipitation Vent Pression Humidité
    00:00 +21°C° 0 mm 1 m/s 743 mmHg 77%
    01:00 +21°C° 0 mm 1 m/s 743 mmHg 79%
    02:00 +18°C° 0 mm 0 m/s 743 mmHg 81%
    03:00 +18°C° 0 mm 0 m/s 743 mmHg 82%
    04:00 +18°C° 0 mm 0 m/s 743 mmHg 84%
    05:00 +21°C° 0,1 mm 1 m/s 743 mmHg 80%
    06:00 +22°C° 0,1 mm 1 m/s 743 mmHg 75%
    07:00 +24°C° 0,1 mm 1 m/s 743 mmHg 71%
    08:00 +25°C° 0,2 mm 2 m/s 743 mmHg 68%
    09:00 +26°C° 0,2 mm 2 m/s 743 mmHg 65%
    10:00 +27°C° 0,2 mm 2 m/s 743 mmHg 62%
    11:00 +27°C° 0,3 mm 2 m/s 743 mmHg 61%
    12:00 +28°C° 0,3 mm 2 m/s 742 mmHg 59%
    13:00 +28°C° 0,3 mm 3 m/s 742 mmHg 58%
    14:00 +29°C° 0,5 mm 3 m/s 742 mmHg 57%
    15:00 +29°C° 0,5 mm 3 m/s 741 mmHg 56%
    16:00 +30°C° 0,5 mm 3 m/s 741 mmHg 55%
    17:00 +28°C° 1 mm 2 m/s 741 mmHg 60%
    18:00 +27°C° 1 mm 2 m/s 741 mmHg 65%
    19:00 +26°C° 1 mm 1 m/s 740 mmHg 71%
    20:00 +24°C° 1,5 mm 2 m/s 741 mmHg 76%
    21:00 +23°C° 1,5 mm 2 m/s 741 mmHg 81%
    22:00 +21°C° 1,5 mm 2 m/s 741 mmHg 86%
    23:00 +20°C° 0,9 mm 2 m/s 741 mmHg 88%

    Demain, 22 Juillet, Dimanche

    Heure Température Précipitation Vent Pression Humidité
    00:00 +20°C° 0,9 mm 2 m/s 741 mmHg 89%
    01:00 +20°C° 0,9 mm 2 m/s 741 mmHg 90%
    02:00 +19°C° 0,4 mm 2 m/s 741 mmHg 90%
    03:00 +19°C° 0,4 mm 2 m/s 741 mmHg 91%
    04:00 +19°C° 0,4 mm 2 m/s 741 mmHg 91%
    05:00 +20°C° 0 mm 2 m/s 741 mmHg 88%
    06:00 +20°C° 0 mm 2 m/s 741 mmHg 86%
    07:00 +21°C° 0 mm 3 m/s 741 mmHg 84%
    08:00 +24°C° 0,3 mm 3 m/s 741 mmHg 78%
    09:00 +25°C° 0,3 mm 3 m/s 741 mmHg 72%
    10:00 +27°C° 0,3 mm 3 m/s 741 mmHg 66%
    11:00 +27°C° 0,6 mm 3 m/s 741 mmHg 63%
    12:00 +28°C° 0,6 mm 3 m/s 741 mmHg 61%
    13:00 +29°C° 0,6 mm 3 m/s 740 mmHg 58%
    14:00 +29°C° 1 mm 3 m/s 740 mmHg 59%
    15:00 +28°C° 1 mm 2 m/s 740 mmHg 61%
    16:00 +28°C° 1 mm 2 m/s 740 mmHg 62%
    17:00 +27°C° 0,3 mm 2 m/s 740 mmHg 66%
    18:00 +26°C° 0,3 mm 2 m/s 740 mmHg 70%
    19:00 +25°C° 0,3 mm 2 m/s 740 mmHg 75%
    20:00 +24°C° 0,2 mm 2 m/s 740 mmHg 77%
    21:00 +22°C° 0,2 mm 3 m/s 740 mmHg 80%
    22:00 +21°C° 0,2 mm 3 m/s 740 mmHg 83%
    23:00 +20°C° 0 mm 3 m/s 740 mmHg 84%

    Après-demain, 23 Juillet, Lundi

    Heure Température Précipitation Vent Pression Humidité
    00:00 +20°C° 0 mm 3 m/s 741 mmHg 85%
    01:00 +20°C° 0 mm 3 m/s 741 mmHg 85%
    02:00 +19°C° 0,5 mm 3 m/s 741 mmHg 87%
    03:00 +19°C° 0,5 mm 3 m/s 740 mmHg 89%
    04:00 +19°C° 0,5 mm 3 m/s 740 mmHg 90%
    05:00 +20°C° 0,4 mm 3 m/s 741 mmHg 88%
    06:00 +20°C° 0,4 mm 4 m/s 741 mmHg 86%
    07:00 +21°C° 0,4 mm 4 m/s 741 mmHg 84%
    08:00 +22°C° 0,1 mm 5 m/s 741 mmHg 78%
    09:00 +25°C° 0,1 mm 5 m/s 741 mmHg 71%
    10:00 +26°C° 0,1 mm 5 m/s 741 mmHg 65%
    11:00 +27°C° 0,6 mm 6 m/s 741 mmHg 62%
    12:00 +28°C° 0,6 mm 6 m/s 741 mmHg 58%
    13:00 +28°C° 0,6 mm 6 m/s 741 mmHg 55%
    14:00 +28°C° 0,2 mm 5 m/s 741 mmHg 56%
    15:00 +28°C° 0,2 mm 5 m/s 741 mmHg 56%
    16:00 +28°C° 0,2 mm 4 m/s 741 mmHg 57%
    17:00 +27°C° 0,1 mm 4 m/s 741 mmHg 60%
    18:00 +26°C° 0,1 mm 4 m/s 741 mmHg 63%
    19:00 +25°C° 0,1 mm 4 m/s 742 mmHg 65%
    20:00 +23°C° 0 mm 4 m/s 742 mmHg 67%
    21:00 +23°C° 0 mm 4 m/s 742 mmHg 69%
    22:00 +22°C° 0 mm 4 m/s 743 mmHg 70%
    23:00 +21°C° 0 mm 4 m/s 743 mmHg 72%

    24 Juillet, Mardi

    Heure Température Précipitation Vent Pression Humidité
    00:00 +21°C° 0 mm 4 m/s 743 mmHg 74%
    01:00 +20°C° 0 mm 4 m/s 743 mmHg 76%
    02:00 +20°C° 0 mm 4 m/s 743 mmHg 77%
    03:00 +19°C° 0 mm 3 m/s 743 mmHg 78%
    04:00 +19°C° 0 mm 3 m/s 743 mmHg 80%
    05:00 +20°C° 0 mm 4 m/s 743 mmHg 75%
    06:00 +22°C° 0 mm 4 m/s 743 mmHg 71%
    07:00 +23°C° 0 mm 4 m/s 744 mmHg 67%
    08:00 +25°C° 0 mm 4 m/s 743 mmHg 61%
    09:00 +27°C° 0 mm 4 m/s 743 mmHg 56%
    10:00 +28°C° 0 mm 4 m/s 743 mmHg 50%
    11:00 +29°C° 0,1 mm 4 m/s 743 mmHg 48%
    12:00 +30°C° 0,1 mm 4 m/s 743 mmHg 47%
    13:00 +30°C° 0,1 mm 4 m/s 742 mmHg 45%
    14:00 +30°C° 0,2 mm 4 m/s 742 mmHg 46%
    15:00 +30°C° 0,2 mm 3 m/s 742 mmHg 47%
    16:00 +30°C° 0,2 mm 3 m/s 742 mmHg 47%
    17:00 +29°C° 0,1 mm 3 m/s 742 mmHg 53%
    18:00 +28°C° 0,1 mm 2 m/s 742 mmHg 58%
    19:00 +26°C° 0,1 mm 2 m/s 742 mmHg 64%
    20:00 +25°C° 0,1 mm 2 m/s 742 mmHg 68%
    21:00 +24°C° 0,1 mm 2 m/s 742 mmHg 73%
    22:00 +21°C° 0,1 mm 2 m/s 743 mmHg 78%
    23:00 +21°C° 0,1 mm 2 m/s 742 mmHg 80%

    25 Juillet, Mercredi

    Heure Température Précipitation Vent Pression Humidité
    00:00 +20°C° 0,1 mm 2 m/s 742 mmHg 83%
    01:00 +20°C° 0,1 mm 2 m/s 742 mmHg 85%
    02:00 +20°C° 0 mm 2 m/s 742 mmHg 86%
    03:00 +19°C° 0 mm 2 m/s 742 mmHg 87%
    04:00 +19°C° 0 mm 2 m/s 742 mmHg 88%
    05:00 +20°C° 0 mm 2 m/s 742 mmHg 84%
    06:00 +21°C° 0 mm 3 m/s 743 mmHg 79%
    07:00 +22°C° 0 mm 3 m/s 743 mmHg 75%
    08:00 +25°C° 0,3 mm 3 m/s 743 mmHg 70%
    09:00 +26°C° 0,3 mm 3 m/s 743 mmHg 65%
    10:00 +27°C° 0,3 mm 3 m/s 743 mmHg 59%
    11:00 +28°C° 0,2 mm 3 m/s 743 mmHg 55%
    12:00 +29°C° 0,2 mm 3 m/s 742 mmHg 51%
    13:00 +29°C° 0,2 mm 3 m/s 742 mmHg 47%
    14:00 +30°C° 0,1 mm 3 m/s 742 mmHg 46%
    15:00 +30°C° 0,1 mm 2 m/s 742 mmHg 46%
    16:00 +30°C° 0,1 mm 2 m/s 742 mmHg 46%
    17:00 +29°C° 0,3 mm 2 m/s 742 mmHg 51%
    18:00 +27°C° 0,3 mm 2 m/s 742 mmHg 57%
    19:00 +26°C° 0,3 mm 2 m/s 742 mmHg 62%
    20:00 +25°C° 0 mm 2 m/s 742 mmHg 65%
    21:00 +24°C° 0 mm 2 m/s 743 mmHg 68%
    22:00 +23°C° 0 mm 2 m/s 743 mmHg 71%
    23:00 +21°C° 0 mm 2 m/s 743 mmHg 73%

    26 Juillet, Jeudi

    Heure Température Précipitation Vent Pression Humidité
    00:00 +21°C° 0 mm 2 m/s 743 mmHg 75%
    01:00 +20°C° 0 mm 2 m/s 743 mmHg 77%
    02:00 +20°C° 0 mm 2 m/s 743 mmHg 79%
    03:00 +19°C° 0 mm 2 m/s 743 mmHg 80%
    04:00 +19°C° 0 mm 2 m/s 743 mmHg 81%
    05:00 +20°C° 0 mm 3 m/s 744 mmHg 77%
    06:00 +22°C° 0 mm 3 m/s 744 mmHg 73%
    07:00 +24°C° 0 mm 3 m/s 744 mmHg 69%
    08:00 +26°C° 0 mm 3 m/s 744 mmHg 63%
    09:00 +27°C° 0 mm 4 m/s 744 mmHg 57%
    10:00 +29°C° 0 mm 4 m/s 744 mmHg 51%
    11:00 +30°C° 0,1 mm 4 m/s 744 mmHg 48%
    12:00 +30°C° 0,1 mm 4 m/s 744 mmHg 46%
    13:00 +31°C° 0,1 mm 3 m/s 743 mmHg 43%
    14:00 +31°C° 0,2 mm 3 m/s 743 mmHg 43%
    15:00 +31°C° 0,2 mm 3 m/s 743 mmHg 43%
    16:00 +31°C° 0,2 mm 3 m/s 743 mmHg 43%
    17:00 +30°C° 0,1 mm 3 m/s 743 mmHg 49%
    18:00 +28°C° 0,1 mm 2 m/s 743 mmHg 55%
    19:00 +27°C° 0,1 mm 2 m/s 743 mmHg 60%
    20:00 +26°C° 0 mm 2 m/s 744 mmHg 63%
    21:00 +25°C° 0 mm 2 m/s 744 mmHg 66%
    22:00 +23°C° 0 mm 2 m/s 744 mmHg 70%
    23:00 +23°C° 0 mm 2 m/s 744 mmHg 71%
    Voir plus